sat.trackr.live / text

‹ back to catalog

GHOST-5

NORAD 59130 · 2024-043AJ

PAYLOAD ACTIVE UNKNOWN

§ Identity

Operator
Country
US
Launch date
2024-03-04
Launch site
AFWTR
Launch vehicle
Mass (kg)
RCS (m²)

External: N2YO · Heavens-Above · Gunter

§ Orbital elements

Epoch: 2026-09-22T09:09:31.322592Z

Period
93.19 min
Inclination
97.5716°
Eccentricity
0.0006443
Mean motion
15.45245105 rev/d
Perigee alt
426.3 km
Apogee alt
435.0 km
Semi-major
6,808.8 km
B*
2.4306e-4
RAAN
53.7418°
Arg perigee
220.3456°
Mean anomaly
139.7315°
Rev number
14,251

§ Raw data

GHOST-51 59130U 24043AJ  26265.38161253  .00011472  00000+0  24306-3 0  99932 59130  97.5716  53.7418 0006443 220.3456 139.7315 15.45245105142516

JSON: /api/v1/satellites/59130 · /tle

For live sub-satellite position, see the globe view (requires WebGL).

§ Visibility from observer

Set your observer location to see the next 7 days of passes ≥ 10°. The values pass through the URL so the page stays shareable.

No JS? Fill the form by hand. The geolocation button needs JavaScript.

§ Radio — SatNOGS DB

ModeDescriptionDownlinkUplink
FSK Telemetry 400.503 MHz

1 transmitter · refreshed weekly from db.satnogs.org